| time (UTC) | temp F | wind direction | speed MPH | gust MPH | rain 1hr in | rain 24hr in | rain mn in | humidity % | barometer mb |
| 20260504224611 | 75 | 232 | 12.0 | 24.0 | 0.00 | 0.00 | 0.00 | 51 | 1006.2 |
| 20260504223102 | 75 | 232 | 15.0 | 26.0 | 0.00 | 0.00 | 0.00 | 50 | 1006.2 |
| 20260504221604 | 75 | 202 | 12.0 | 24.0 | 0.00 | 0.00 | 0.00 | 49 | 1006.5 |
| 20260504214601 | 75 | 250 | 17.0 | 29.0 | 0.00 | 0.00 | 0.00 | 47 | 1006.6 |
| 20260504213126 | 75 | 248 | 19.0 | 30.0 | 0.00 | 0.00 | 0.00 | 48 | 1006.5 |
| 20260504211603 | 76 | 268 | 10.0 | 28.0 | 0.00 | 0.00 | 0.00 | 48 | 1006.6 |
| 20260504210058 | 77 | 257 | 9.0 | 21.0 | 0.00 | 0.00 | 0.00 | 49 | 1006.8 |
| 20260504204558 | 77 | 202 | 9.0 | 18.0 | 0.00 | 0.00 | 0.00 | 50 | 1006.8 |
| 20260504203117 | 77 | 186 | 9.0 | 18.0 | 0.00 | 0.00 | 0.00 | 50 | 1006.7 |
| 20260504201558 | 76 | 202 | 9.0 | 21.0 | 0.00 | 0.00 | 0.00 | 51 | 1006.8 |
| 20260504200055 | 76 | 244 | 8.0 | 17.0 | 0.00 | 0.00 | 0.00 | 55 | 1006.9 |
| 20260504194605 | 74 | 211 | 12.0 | 21.0 | 0.00 | 0.00 | 0.00 | 55 | 1007.4 |
| 20260504193110 | 74 | 208 | 11.0 | 21.0 | 0.00 | 0.00 | 0.00 | 54 | 1007.5 |
| 20260504191557 | 75 | 279 | 11.0 | 22.0 | 0.00 | 0.00 | 0.00 | 53 | 1007.8 |
| 20260504190115 | 74 | 214 | 7.0 | 18.0 | 0.00 | 0.00 | 0.00 | 55 | 1007.9 |
| 20260504184606 | 74 | 229 | 10.0 | 19.0 | 0.00 | 0.00 | 0.00 | 55 | 1007.9 |
| 20260504183058 | 73 | 184 | 9.0 | 22.0 | 0.00 | 0.00 | 0.00 | 57 | 1008.0 |
| 20260504181603 | 73 | 308 | 13.0 | 27.0 | 0.00 | 0.00 | 0.00 | 54 | 1007.9 |
| 20260504180059 | 72 | 172 | 8.0 | 22.0 | 0.00 | 0.00 | 0.00 | 58 | 1007.9 |
| 20260504174607 | 70 | 198 | 12.0 | 18.0 | 0.00 | 0.00 | 0.00 | 63 | 1008.0 |
| 20260504173100 | 69 | 188 | 8.0 | 15.0 | 0.00 | 0.00 | 0.00 | 64 | 1008.0 |
| 20260504171555 | 69 | 210 | 10.0 | 19.0 | 0.00 | 0.00 | 0.00 | 62 | 1008.2 |
| 20260504140110 | 59 | 238 | 6.0 | 16.0 | 0.00 | 0.00 | 0.00 | 74 | 1008.8 |
| 20260504110120 | 54 | 213 | 10.0 | 17.0 | 0.00 | 0.00 | 0.00 | 71 | 1009.6 |
| 20260504100105 | 54 | 197 | 8.0 | 13.0 | 0.00 | 0.00 | 0.00 | 67 | 1009.6 |
| 20260504090119 | 54 | 188 | 7.0 | 14.0 | 0.00 | 0.00 | 0.00 | 66 | 1009.7 |
| 20260504081557 | 54 | 156 | 8.0 | 13.0 | 0.00 | 0.00 | 0.00 | 64 | 1009.9 |
| 20260504060103 | 55 | 184 | 9.0 | 15.0 | 0.00 | 0.00 | 0.00 | 60 | 1011.4 |
| 20260504050106 | 56 | 163 | 9.0 | 18.0 | 0.00 | 0.00 | 0.00 | 58 | 1011.8 |
| 20260504044604 | 56 | 165 | 11.0 | 18.0 | 0.00 | 0.00 | 0.00 | 58 | 1011.7 |
| 20260504043059 | 56 | 198 | 9.0 | 18.0 | 0.00 | 0.00 | 0.00 | 57 | 1011.9 |
| 20260504041559 | 56 | 201 | 8.0 | 15.0 | 0.00 | 0.00 | 0.00 | 57 | 1012.0 |
| 20260504040107 | 56 | 184 | 10.0 | 21.0 | 0.00 | 0.00 | 0.00 | 57 | 1012.2 |
| 20260504034605 | 56 | 193 | 8.0 | 19.0 | 0.00 | 0.00 | 0.00 | 56 | 1012.4 |
| 20260504033114 | 57 | 218 | 11.0 | 18.0 | 0.00 | 0.00 | 0.00 | 55 | 1012.6 |
| 20260504031603 | 57 | 180 | 11.0 | 18.0 | 0.00 | 0.00 | 0.00 | 54 | 1012.6 |
| 20260504030059 | 58 | 191 | 11.0 | 20.0 | 0.00 | 0.00 | 0.00 | 53 | 1012.7 |
| 20260504024605 | 58 | 180 | 10.0 | 18.0 | 0.00 | 0.00 | 0.00 | 52 | 1012.6 |
| 20260504023057 | 58 | 180 | 10.0 | 17.0 | 0.00 | 0.00 | 0.00 | 52 | 1012.7 |
| 20260504021556 | 58 | 223 | 11.0 | 17.0 | 0.00 | 0.00 | 0.00 | 52 | 1012.7 |
| 20260504020058 | 58 | 215 | 11.0 | 18.0 | 0.00 | 0.00 | 0.00 | 51 | 1012.3 |
| 20260504014603 | 58 | 195 | 10.0 | 18.0 | 0.00 | 0.00 | 0.00 | 50 | 1012.5 |
| 20260504013057 | 58 | 218 | 10.0 | 19.0 | 0.00 | 0.00 | 0.00 | 49 | 1012.6 |
| 20260504011559 | 59 | 207 | 9.0 | 16.0 | 0.00 | 0.00 | 0.00 | 48 | 1012.6 |
| 20260504010101 | 59 | 176 | 6.0 | 11.0 | 0.00 | 0.00 | 0.00 | 48 | 1012.7 |
| 20260504004602 | 59 | 241 | 5.0 | 13.0 | 0.00 | 0.00 | 0.00 | 46 | 1013.0 |
| 20260504003056 | 59 | 210 | 5.0 | 12.0 | 0.00 | 0.00 | 0.00 | 45 | 1012.8 |
| 20260504001612 | 59 | 210 | 6.0 | 12.0 | 0.00 | 0.00 | 0.00 | 45 | 1012.7 |
| 20260504000056 | 60 | 188 | 8.0 | 14.0 | 0.00 | 0.00 | 0.00 | 44 | 1012.3 |
| 20260503234556 | 60 | 225 | 7.0 | 13.0 | 0.00 | 0.00 | 0.00 | 44 | 1012.5 |
| 20260503233141 | 60 | 202 | 10.0 | 19.0 | 0.00 | 0.00 | 0.00 | 43 | 1012.3 |
| 20260503231556 | 60 | 207 | 6.0 | 15.0 | 0.00 | 0.00 | 0.00 | 43 | 1012.4 |
| 20260503230059 | 60 | 211 | 8.0 | 15.0 | 0.00 | 0.00 | 0.00 | 42 | 1012.9 |